FENGYUN 1C DEB

Satellite information

Favourite Embed

Satellite Type and Status

DEBRISIN ORBIT

Key statistics

Satellite FENGYUN 1C DEB at a glance.

Uptime

9714

Days in orbit

Revolutions

≈ 14.4

Per day

Orbit

SSO

Sun Synchronous Orbit

Inclination

98.2

Latest

Satellite identification and parameters

Extended collection of information and parameters for FENGYUN 1C DEB.

Object identification

Identified? True

Debris? True

Object name: FENGYUN 1C DEB

International designator: 1999-025NR

Object number (NORAD): 30040

Object ID (CCSDS): 30040

Country: PEOPLES REPUBLIC OF CHINA (PRC)

Current information (Y/N): Y

RCS size: SMALL

Orbital parameters

Period: 100.201 minutes

Inclination: 98.2344 deg

SMA: 7146.208 km

Apoapsis: 791.172 km

Periapsis: 744.974 km

RAAN: 2.4395 deg

Eccentricy: 0.0032324

Argument of periapsis: 315.2068 deg

Mean anomaly: 65.5982 deg

Mean motion: 14.37107589 rev/day

Mean motion (dot): 0.0000779 rev/day2

B* drag term: 0.002618 1/REarth

Two-line elements (TLE)

Creation date: Dec. 12, 2025, 7:26 a.m.

Reference frame: TEME

Reference center: EARTH

Epoch: Dec. 12, 2025, 12:42 a.m. UTC

TLE line 0: 0 FENGYUN 1C DEB

TLE line 1: 1 30040U 99025NR 25346.02977889 .00007790 00000-0 26180-2 0 9994

TLE line 2: 2 30040 98.2344 2.4395 0032324 315.2068 65.5982 14.37107589979185

Live tracking on map

Real-time ground track for satellite FENGYUN 1C DEB.

In-orbit conjunctions

A list of the most updated potential collisions computed for object FENGYUN 1C DEB.

Target Orbit TCA Probability of collision Miss distance Type
FENGYUN 1C DEB SSO 2025-12-04 12:31:31 0.0001566783 148.0 (m) DEBRIS
COSMOS 1302 LEO 2025-06-23 09:20:45 0.0001115271 256.0 (m) PAYLOAD
DMSP 5D-2 F13 DEB SSO 2024-11-12 08:51:58 0.0002842395 159.0 (m) DEBRIS
FENGYUN 1C DEB SSO 2024-06-15 11:31:43 0.0002891886 108.0 (m) DEBRIS

Associated space launch

Chinese polar orbiting meteorological satellite

FENGYUN 1C DEB was lifted into orbit during the mission ‘Long March 4B | Feng Yun 1C’, on board a Long March 4B space rocket.

The launch took place on May 10, 1999, 1:33 a.m. from Launch Complex 7.

For more information about the launch, click the button.

Launch to space Long March 4B | Feng Yun 1C
Long March 4B | Feng Yun 1C

Agency: N/A

Status: Launch Successful

Launch date: May 10, 1999, 1:33 a.m. UTC

Rocket: Long March 4B

Launch pad: Launch Complex 7

Location: Taiyuan Satellite Launch Center, People's Republic of China

...

Latest news about this satellite

There are no fresh news available about this satellite. Check back as we update our databases every day.


Newsletter sign-up

Weekly statistics, charts and insights to help you stay on top of the space industry.